Location: Powder Track
(41.8531°N, 72.3584°W)
Time: 00:32:29
(UTC+00:00)

Vanguard 2 Rocket - Pass Details

Date: 09 August 2021
Orbit: 556 x 3324 km, 32.9° (Epoch: 22 September)

Event Time Altitude Azimuth Distance (km) Brightness Sun altitude
Rises 13:05:42 0° 259° (W) 3,029 9.1 34.6°
Reaches altitude 10° 13:08:48 10° 240° (WSW) 1,923 8.3 35.2°
Maximum altitude 13:11:38 18° 196° (SSW) 1,408 8.0 35.7°
Drops below altitude 10° 13:14:21 10° 152° (SSE) 1,835 9.1 36.2°
Sets 13:17:13 0° 132° (SE) 2,829 10.2 36.7°
